GW2041 Weather Reports


Display with metric or nautical units.
time (UTC)temp
F
wind
direction
speed
MPH
gust
MPH
rain 1hr
in
rain 24hr
in
rain mn
in
humidity
%
barometer
mb
20260903084239 67 315 4.0 7.0 0.00 0.00 0.00 83 1014.0
20260903083233 67 203 4.0 8.0 0.00 0.00 0.00 83 1013.8
20260903082228 67 158 4.0 8.0 0.00 0.00 0.00 83 1013.8
20260903081228 66 180 4.0 9.0 0.00 0.00 0.00 82 1014.0
20260903080240 66 270 4.0 12.0 0.00 0.00 0.00 82 1014.0
20260903075232 66 158 4.0 8.0 0.00 0.00 0.00 82 1014.0
20260903074231 66 180 3.0 7.0 0.00 0.00 0.00 82 1014.0
20260903073236 65 248 4.0 0.0 0.00 0.00 0.00 82 1014.1
20260903072211 65 180 4.0 8.0 0.00 0.00 0.00 82 1014.1
20260903071217 65 248 4.0 11.0 0.00 0.00 0.00 82 1014.0
20260903070212 65 135 4.0 8.0 0.00 0.00 0.00 81 1014.0
20260903065211 65 180 5.0 8.0 0.00 0.00 0.00 81 1014.0
20260903064212 65 225 4.0 7.0 0.00 0.00 0.00 82 1014.0
20260903063708 65 158 4.0 9.0 0.00 0.00 0.00 82 1014.1
20260903062212 64 225 3.0 7.0 0.00 0.00 0.00 82 1014.1
20260903061210 64 225 3.0 7.0 0.00 0.00 0.00 83 1014.3
20260903060210 64 248 4.0 9.0 0.00 0.00 0.00 83 1014.3
20260903055656 64 180 3.0 6.0 0.00 0.00 0.00 84 1014.5
20260903054210 64 203 3.0 5.0 0.00 0.00 0.00 84 1014.5
20260903053211 63 180 4.0 10.0 0.00 0.00 0.00 85 1013.7
20260903052212 63 203 4.0 5.0 0.00 0.00 0.00 86 1013.7
20260903051647 63 180 3.0 6.0 0.00 0.00 0.00 85 1014.2
20260903050208 63 180 4.0 9.0 0.00 0.00 0.00 84 1014.2
20260903045208 64 180 4.0 8.0 0.00 0.00 0.00 83 1014.3
20260903044206 64 225 4.0 9.0 0.00 0.00 0.00 83 1014.3
20260903043204 64 135 3.0 7.0 0.00 0.00 0.00 83 1013.8
20260903042652 63 158 4.0 7.0 0.00 0.00 0.00 83 1013.8
20260903040205 63 180 3.0 7.0 0.00 0.00 0.00 83 1014.3
20260903035206 63 293 3.0 5.0 0.00 0.00 0.00 83 1014.7
20260903034200 63 225 4.0 7.0 0.00 0.00 0.00 83 1014.7
20260903033158 63 248 4.0 8.0 0.00 0.00 0.00 83 1015.0
20260903032635 63 203 4.0 7.0 0.00 0.00 0.00 83 1015.0
20260903031203 63 158 4.0 0.0 0.00 0.00 0.00 84 1015.0
20260903030329 63 203 4.0 8.0 0.00 0.00 0.00 83 1015.0
20260903025332 63 158 4.0 8.0 0.00 0.00 0.00 83 1015.3
20260903024331 63 158 4.0 10.0 0.00 0.00 0.00 84 1015.3
20260903023327 63 203 4.0 6.0 0.00 0.00 0.00 84 1015.4
20260903022325 62 225 2.0 4.0 0.00 0.00 0.00 84 1015.4
20260903021327 62 180 3.0 4.0 0.00 0.00 0.00 84 1015.6
20260903020322 63 225 2.0 3.0 0.00 0.00 0.00 84 1015.6
20260903015802 63 180 3.0 7.0 0.00 0.00 0.00 83 1015.9
20260903014326 63 225 4.0 7.0 0.00 0.00 0.00 83 1015.9
20260903013322 63 315 3.0 7.0 0.00 0.00 0.00 83 1016.9
20260903012322 63 180 3.0 6.0 0.00 0.00 0.00 82 1016.9
20260903011807 63 225 2.0 5.0 0.00 0.00 0.00 82 1016.5
20260903010321 64 248 2.0 4.0 0.00 0.00 0.00 81 1016.5
20260903005320 64 248 3.0 11.0 0.00 0.00 0.00 81 1016.8
20260903004319 64 158 2.0 6.0 0.00 0.00 0.00 80 1016.8
20260903003321 64 225 3.0 6.0 0.00 0.00 0.00 80 1016.7
20260903002320 64 225 3.0 7.0 0.00 0.00 0.00 81 1016.7
20260903001320 64 203 4.0 6.0 0.00 0.00 0.00 81 1017.0
20260903000319 64 158 4.0 11.0 0.00 0.00 0.00 82 1017.0
20260902235323 63 180 3.0 5.0 0.00 0.00 0.00 82 1017.1
20260902234321 63 158 3.0 5.0 0.00 0.00 0.00 83 1017.1
20260902233321 63 135 3.0 6.0 0.00 0.00 0.00 84 1017.4
20260902232323 63 158 3.0 6.0 0.00 0.00 0.00 85 1017.4
20260902231323 62 180 1.0 3.0 0.00 0.00 0.00 86 1017.8
20260902230334 62 180 0.0 2.0 0.00 0.00 0.00 86 1017.8
20260902225322 62 180 0.0 2.0 0.00 0.00 0.00 86 1018.1
20260902224321 62 135 0.0 3.0 0.00 0.00 0.00 86 1018.1
20260902223318 62 113 1.0 2.0 0.00 0.00 0.00 85 1018.2
20260902222318 62 225 1.0 2.0 0.00 0.00 0.00 85 1018.2
20260902221317 62 180 1.0 2.0 0.00 0.00 0.00 84 1018.6
20260902220314 63 180 2.0 8.0 0.00 0.00 0.00 83 1018.6
20260902215306 63 90 2.0 4.0 0.00 0.00 0.00 83 1018.1
20260902214749 63 158 1.0 3.0 0.00 0.00 0.00 82 1018.1
20260902213306 63 180 1.0 5.0 0.00 0.00 0.00 82 1018.3
20260902212309 64 180 2.0 5.0 0.00 0.00 0.00 82 1018.3
20260902211311 64 180 2.0 3.0 0.00 0.00 0.00 81 1018.3
20260902210309 64 158 2.0 4.0 0.00 0.00 0.00 81 1018.3
20260902205308 64 203 2.0 4.0 0.00 0.00 0.00 80 1018.3
20260902204750 64 158 0.0 0.0 0.00 0.00 0.00 80 1018.3
20260902203303 64 180 2.0 5.0 0.00 0.00 0.00 81 1018.6
20260902202741 64 158 0.0 1.0 0.00 0.00 0.00 80 1018.6
20260902201300 65 180 1.0 4.0 0.00 0.00 0.00 80 1018.7
20260902200257 65 180 1.0 3.0 0.00 0.00 0.00 80 1018.7
20260902195256 65 180 1.0 4.0 0.00 0.00 0.00 80 1019.0
20260902194257 65 158 1.0 3.0 0.00 0.00 0.00 79 1019.0
20260902193257 65 180 1.0 3.0 0.00 0.00 0.00 79 1019.0
20260902192259 65 180 1.0 3.0 0.00 0.00 0.00 78 1019.0
20260902191257 66 158 1.0 3.0 0.00 0.00 0.00 78 1019.0
20260902190258 66 90 2.0 3.0 0.00 0.00 0.00 78 1019.0
20260902185254 66 180 1.0 4.0 0.00 0.00 0.00 77 1018.9
20260902184254 66 225 1.0 3.0 0.00 0.00 0.00 76 1018.9
20260902183254 66 135 2.0 4.0 0.00 0.00 0.00 76 1018.9
20260902182251 66 135 1.0 2.0 0.00 0.00 0.00 74 1018.9
20260902181252 67 225 0.0 3.0 0.00 0.00 0.00 73 1018.8
20260902180252 67 180 1.0 2.0 0.00 0.00 0.00 73 1018.8
20260902175252 67 225 1.0 4.0 0.00 0.00 0.00 72 1018.7
20260902174252 67 158 1.0 3.0 0.00 0.00 0.00 71 1018.7
20260902173253 67 225 0.0 1.0 0.00 0.00 0.00 70 1018.9
20260902172237 67 225 2.0 3.0 0.00 0.00 0.00 70 1018.9
20260902171236 68 158 1.0 3.0 0.00 0.00 0.00 69 1018.7
20260902170234 68 270 2.0 5.0 0.00 0.00 0.00 69 1018.7
20260902165235 68 248 3.0 4.0 0.00 0.00 0.00 67 1018.9
20260902164235 68 203 3.0 7.0 0.00 0.00 0.00 66 1018.9
20260902163235 69 248 3.0 6.0 0.00 0.00 0.00 65 1018.8
20260902162232 69 225 2.0 6.0 0.00 0.00 0.00 65 1018.8